AFR1P LFPG-LEIB

Flight info

Callsign AFR1P
Flight time N/A
Altitude 35000
Route ERIXU DCT ETAMO DCT ADEKA/N0413F250 DCT MOKDI DCT MEN DCT BADAM DCT KANIG DCT KENAS DCT POS
Aircraft A321/M-SDE3FGHIRWY/LB1

Departure

Time N/A
Airport Charles de Gaulle International Airport (LFPG)

Arrival

Time 2026-05-07 21:35
Airport Ibiza Airport (LEIB)
Time Latitude Longitude Altitude Speed Heading
2026-05-07 20:50 40.06939 3.10795 34975 ft 427 kts 182°
2026-05-07 20:51 40.00006 3.11121 34975 ft 428 kts 182°
2026-05-07 20:51 39.95023 3.11091 34974 ft 424 kts 191°
2026-05-07 20:52 39.89433 3.09006 34973 ft 416 kts 209°
2026-05-07 20:52 39.85046 3.05855 34971 ft 416 kts 212°
2026-05-07 20:53 39.79990 3.02170 34970 ft 417 kts 212°
2026-05-07 20:53 39.74918 2.98492 34968 ft 418 kts 212°
2026-05-07 20:54 39.69828 2.94804 34967 ft 419 kts 212°
2026-05-07 20:54 39.64725 2.91108 34953 ft 420 kts 213°
2026-05-07 20:55 39.59616 2.87409 34953 ft 421 kts 213°
2026-05-07 20:55 39.54491 2.83713 34951 ft 422 kts 213°
2026-05-07 20:56 39.49342 2.80018 34942 ft 423 kts 213°
2026-05-07 20:56 39.44306 2.76117 34946 ft 419 kts 222°
2026-05-07 20:57 39.40315 2.70741 34945 ft 413 kts 234°
2026-05-07 20:57 39.36687 2.64954 34945 ft 414 kts 234°
2026-05-07 20:58 39.33042 2.59188 34940 ft 415 kts 234°
2026-05-07 20:58 39.29389 2.53418 34884 ft 415 kts 234°
2026-05-07 20:58 39.27564 2.50531 34641 ft 415 kts 234°
2026-05-07 20:59 39.25734 2.47641 34403 ft 416 kts 235°
2026-05-07 20:59 39.23926 2.44788 34168 ft 416 kts 235°
2026-05-07 20:59 39.22090 2.41893 33589 ft 418 kts 235°
2026-05-07 20:59 39.20247 2.38986 32724 ft 419 kts 234°
2026-05-07 21:00 39.18400 2.36077 31898 ft 419 kts 233°
2026-05-07 21:00 39.16549 2.33170 31040 ft 420 kts 232°
2026-05-07 21:00 39.14686 2.30251 30172 ft 423 kts 232°
2026-05-07 21:00 39.12813 2.27314 29156 ft 425 kts 231°
2026-05-07 21:01 39.10935 2.24368 28193 ft 426 kts 231°
2026-05-07 21:01 39.09043 2.21406 27198 ft 429 kts 231°
2026-05-07 21:01 39.07140 2.18428 26131 ft 433 kts 231°
2026-05-07 21:01 39.05214 2.15417 25007 ft 438 kts 231°
2026-05-07 21:02 39.03302 2.12430 24259 ft 435 kts 231°
2026-05-07 21:02 39.01385 2.09441 23532 ft 431 kts 230°
2026-05-07 21:02 38.99485 2.06481 22726 ft 427 kts 230°
2026-05-07 21:02 38.97612 2.03568 22045 ft 419 kts 226°
2026-05-07 21:03 38.95761 2.00740 21360 ft 410 kts 230°
2026-05-07 21:03 38.93954 1.97948 20756 ft 403 kts 230°
2026-05-07 21:03 38.92253 1.95133 20116 ft 396 kts 236°
2026-05-07 21:03 38.90906 1.92069 19527 ft 393 kts 245°
2026-05-07 21:04 38.89924 1.88815 18932 ft 390 kts 252°
2026-05-07 21:04 38.89222 1.85463 18352 ft 387 kts 255°
2026-05-07 21:04 38.88539 1.82137 17742 ft 384 kts 254°
2026-05-07 21:04 38.87856 1.78836 17208 ft 382 kts 254°
2026-05-07 21:05 38.87175 1.75555 16686 ft 379 kts 255°
2026-05-07 21:05 38.86502 1.72306 16178 ft 376 kts 255°
2026-05-07 21:05 38.85837 1.69078 15711 ft 373 kts 255°
2026-05-07 21:05 38.85176 1.65874 15233 ft 370 kts 255°
2026-05-07 21:06 38.84516 1.62693 14762 ft 368 kts 255°
2026-05-07 21:06 38.83860 1.59545 14290 ft 366 kts 255°
2026-05-07 21:06 38.83188 1.56393 13802 ft 363 kts 255°
2026-05-07 21:06 38.82505 1.53282 13277 ft 361 kts 255°
2026-05-07 21:07 38.81819 1.50221 12961 ft 349 kts 254°
2026-05-07 21:07 38.81161 1.47302 12821 ft 333 kts 255°
2026-05-07 21:07 38.80534 1.44513 12697 ft 318 kts 254°
2026-05-07 21:07 38.79746 1.41940 12565 ft 304 kts 244°
2026-05-07 21:08 38.78775 1.39604 12436 ft 291 kts 243°
2026-05-07 21:08 38.77858 1.37320 12007 ft 289 kts 245°
2026-05-07 21:08 38.76998 1.34983 11487 ft 291 kts 246°
2026-05-07 21:08 38.76167 1.32627 11034 ft 290 kts 246°
2026-05-07 21:09 38.75349 1.30290 10769 ft 284 kts 247°
2026-05-07 21:09 38.74539 1.27986 10647 ft 283 kts 246°
2026-05-07 21:09 38.73729 1.25696 10514 ft 282 kts 246°
2026-05-07 21:09 38.72915 1.23409 10387 ft 282 kts 246°
2026-05-07 21:10 38.72100 1.21126 10260 ft 282 kts 246°
2026-05-07 21:10 38.71283 1.18843 10146 ft 282 kts 246°
2026-05-07 21:10 38.70464 1.16560 9999 ft 282 kts 246°
2026-05-07 21:10 38.69641 1.14277 9626 ft 285 kts 247°
2026-05-07 21:11 38.68803 1.11957 9109 ft 286 kts 247°
2026-05-07 21:11 38.67972 1.09656 8592 ft 284 kts 247°
2026-05-07 21:11 38.66300 1.05033 7485 ft 290 kts 247°
2026-05-07 21:12 38.65463 1.02722 7237 ft 281 kts 247°
2026-05-07 21:12 38.64685 1.00493 7104 ft 267 kts 253°
2026-05-07 21:12 38.64553 0.98245 6988 ft 247 kts 286°
2026-05-07 21:12 38.65304 0.96387 6828 ft 231 kts 318°
2026-05-07 21:13 38.66595 0.95269 6681 ft 227 kts 339°
2026-05-07 21:13 38.68110 0.94872 6525 ft 223 kts
2026-05-07 21:13 38.69560 0.95489 6314 ft 222 kts 36°
2026-05-07 21:13 38.70540 0.96977 6039 ft 221 kts 60°
2026-05-07 21:14 38.71258 0.98722 5759 ft 221 kts 62°
2026-05-07 21:14 38.71945 1.00473 5491 ft 219 kts 61°
2026-05-07 21:14 38.72653 1.02195 5243 ft 218 kts 60°
2026-05-07 21:14 38.73369 1.03905 4995 ft 216 kts 60°
2026-05-07 21:15 38.74079 1.05600 4750 ft 215 kts 60°
2026-05-07 21:15 38.74785 1.07285 4506 ft 214 kts 60°
2026-05-07 21:15 38.75484 1.08958 4265 ft 212 kts 61°
2026-05-07 21:15 38.76180 1.10623 4013 ft 212 kts 60°
2026-05-07 21:16 38.76872 1.12279 3783 ft 211 kts 60°
2026-05-07 21:16 38.77561 1.13929 3550 ft 209 kts 60°
2026-05-07 21:16 38.78243 1.15564 3318 ft 207 kts 60°
2026-05-07 21:16 38.78909 1.17161 3226 ft 198 kts 60°
2026-05-07 21:17 38.79547 1.18691 2988 ft 191 kts 60°
2026-05-07 21:17 38.80165 1.20174 2764 ft 187 kts 60°
2026-05-07 21:17 38.80768 1.21622 2524 ft 180 kts 60°
2026-05-07 21:17 38.81343 1.23004 2285 ft 172 kts 61°
2026-05-07 21:18 38.81894 1.24327 2059 ft 164 kts 60°
2026-05-07 21:18 38.82399 1.25541 1853 ft 146 kts 60°
2026-05-07 21:18 38.82861 1.26653 1667 ft 137 kts 60°
2026-05-07 21:18 38.83304 1.27719 1474 ft 134 kts 60°
2026-05-07 21:19 38.83743 1.28773 1299 ft 134 kts 59°
2026-05-07 21:19 38.84178 1.29820 1115 ft 134 kts 60°
2026-05-07 21:19 38.84612 1.30867 939 ft 133 kts 59°
2026-05-07 21:19 38.85048 1.31915 755 ft 133 kts 60°
2026-05-07 21:20 38.85478 1.32963 574 ft 133 kts 58°
2026-05-07 21:20 38.85908 1.34026 387 ft 135 kts 58°
2026-05-07 21:20 38.86351 1.35077 216 ft 133 kts 58°
2026-05-07 21:20 38.86781 1.36113 26 ft 129 kts 57°
2026-05-07 21:21 38.87147 1.37084 33 ft 127 kts 56°
2026-05-07 21:21 38.87663 1.38259 363 ft 172 kts 57°
2026-05-07 21:21 38.88231 1.39752 967 ft 186 kts 65°
2026-05-07 21:21 38.88695 1.41183 1547 ft 164 kts 68°
2026-05-07 21:22 38.88828 1.42609 1879 ft 164 kts 101°
2026-05-07 21:22 38.88344 1.43977 2402 ft 173 kts 113°
2026-05-07 21:22 38.87736 1.45347 2897 ft 181 kts 115°
2026-05-07 21:22 38.86798 1.46616 3000 ft 216 kts 145°
2026-05-07 21:23 38.85296 1.47168 2993 ft 232 kts 169°
2026-05-07 21:23 38.83681 1.47378 2998 ft 234 kts 172°
2026-05-07 21:23 38.82064 1.47517 3003 ft 234 kts 179°
2026-05-07 21:23 38.80509 1.46919 3013 ft 238 kts 214°
2026-05-07 21:24 38.79378 1.45376 3014 ft 240 kts 237°
2026-05-07 21:24 38.78519 1.43548 3009 ft 239 kts 242°
2026-05-07 21:24 38.77696 1.41687 3011 ft 241 kts 242°
2026-05-07 21:24 38.76871 1.39812 2998 ft 241 kts 242°
2026-05-07 21:25 38.76058 1.37943 3003 ft 240 kts 242°
2026-05-07 21:25 38.75242 1.36066 3009 ft 241 kts 242°
2026-05-07 21:25 38.74431 1.34216 2995 ft 241 kts 242°
2026-05-07 21:25 38.73608 1.32338 3008 ft 242 kts 242°
2026-05-07 21:26 38.72785 1.30464 3005 ft 241 kts 242°
2026-05-07 21:26 38.71949 1.28595 3002 ft 241 kts 241°
2026-05-07 21:26 38.71121 1.26729 3006 ft 241 kts 242°
2026-05-07 21:26 38.70293 1.24865 3004 ft 242 kts 242°
2026-05-07 21:27 38.69455 1.22996 3003 ft 242 kts 242°
2026-05-07 21:27 38.68624 1.21128 3000 ft 242 kts 242°
2026-05-07 21:27 38.67792 1.19259 3001 ft 241 kts 242°
2026-05-07 21:27 38.66962 1.17387 3001 ft 242 kts 242°
2026-05-07 21:28 38.66161 1.15492 2999 ft 241 kts 250°
2026-05-07 21:28 38.65862 1.13433 3003 ft 233 kts 278°
2026-05-07 21:28 38.66278 1.11482 2999 ft 226 kts 304°
2026-05-07 21:28 38.67276 1.09988 3004 ft 219 kts 329°
2026-05-07 21:29 38.68624 1.09177 3004 ft 212 kts 352°
2026-05-07 21:29 38.70067 1.09127 3005 ft 206 kts 14°
2026-05-07 21:29 38.71385 1.09789 3005 ft 204 kts 33°
2026-05-07 21:29 38.72587 1.10765 3007 ft 205 kts 33°
2026-05-07 21:30 38.73800 1.11739 3003 ft 205 kts 33°
2026-05-07 21:30 38.75010 1.12710 3006 ft 206 kts 33°
2026-05-07 21:30 38.76224 1.13683 3006 ft 206 kts 33°
2026-05-07 21:30 38.77412 1.14700 3006 ft 205 kts 40°
2026-05-07 21:31 38.78368 1.16053 3005 ft 206 kts 56°
2026-05-07 21:31 38.79098 1.17629 3006 ft 206 kts 60°
2026-05-07 21:31 38.79779 1.19245 2861 ft 206 kts 60°
2026-05-07 21:31 38.80449 1.20854 2624 ft 204 kts 60°
2026-05-07 21:32 38.81115 1.22455 2370 ft 203 kts 61°
2026-05-07 21:32 38.81778 1.24047 2103 ft 202 kts 61°
2026-05-07 21:32 38.82428 1.25610 1856 ft 193 kts 61°
2026-05-07 21:32 38.83027 1.27053 1592 ft 174 kts 60°
2026-05-07 21:33 38.83572 1.28365 1361 ft 160 kts 60°
2026-05-07 21:33 38.83908 1.29174 1243 ft 148 kts 61°
2026-05-07 21:33 38.84375 1.30296 1033 ft 138 kts 60°
2026-05-07 21:33 38.84820 1.31367 839 ft 135 kts 60°
2026-05-07 21:34 38.85256 1.32418 663 ft 132 kts 59°
2026-05-07 21:34 38.85692 1.33468 479 ft 135 kts 59°
2026-05-07 21:34 38.86131 1.34527 308 ft 134 kts 60°
2026-05-07 21:34 38.86564 1.35570 125 ft 132 kts 58°
2026-05-07 21:35 38.86990 1.36594 6 ft 124 kts 61°
2026-05-07 21:35 38.87256 1.37237 7 ft 38 kts 62°
2026-05-07 21:35 38.87310 1.37360 6 ft 17 kts 57°
2026-05-07 21:35 38.87405 1.37463 6 ft 14 kts 34°
2026-05-07 21:36 38.87465 1.37514 8 ft 10 kts 32°
2026-05-07 21:36 38.87512 1.37552 8 ft 7 kts 31°
2026-05-07 21:36 38.87555 1.37570 8 ft 6 kts 357°
2026-05-07 21:36 38.87591 1.37553 8 ft 5 kts 333°
2026-05-07 21:37 38.87622 1.37532 8 ft 5 kts 333°
2026-05-07 21:37 38.87653 1.37512 10 ft 5 kts 333°
2026-05-07 21:37 38.87681 1.37489 8 ft 5 kts 319°
2026-05-07 21:37 38.87696 1.37456 8 ft 4 kts 283°
2026-05-07 21:38 38.87695 1.37426 8 ft 3 kts 257°
2026-05-07 21:38 38.87672 1.37366 8 ft 10 kts 243°
2026-05-07 21:38 38.87637 1.37280 8 ft 12 kts 242°
2026-05-07 21:38 38.87595 1.37180 10 ft 13 kts 242°
2026-05-07 21:39 38.87548 1.37068 8 ft 15 kts 241°
2026-05-07 21:39 38.87497 1.36939 10 ft 17 kts 242°
2026-05-07 21:39 38.87438 1.36796 8 ft 19 kts 242°
2026-05-07 21:39 38.87373 1.36638 8 ft 21 kts 242°
2026-05-07 21:40 38.87356 1.36598 8 ft 0 kts 242°
2026-05-07 21:40 38.87345 1.36573 8 ft 5 kts 240°
2026-05-07 21:40 38.87327 1.36533 8 ft 5 kts 236°
2026-05-07 21:41 38.87306 1.36530 8 ft 3 kts 173°
2026-05-07 21:41 38.87290 1.36539 8 ft 2 kts 150°
2026-05-07 21:41 38.87279 1.36548 8 ft 2 kts 149°
2026-05-07 21:41 38.87271 1.36553 8 ft 2 kts 152°
2026-05-07 21:42 38.87256 1.36564 9 ft 1 kts 152°
2026-05-07 21:42 38.87255 1.36564 9 ft 0 kts 152°